My Meet Scores
Hayley Dotson, Gym Kinetics Gymnastics - MyMeetScores.com
Top100 | Top Teams | Upcoming Meets | Completed Meets | Latest | Add Scores | Help| Support | Bookmark and Share

Hayley Dotson, Gym Kinetics Gymnastics
Personal Bests
LevelVault BarsBeamFloorAA
38.9508.650 8.5508.62534.150
49.1009.300 9.4508.90036.100
Meet Scores
Date Meet Team Session Level Division Vault Bars Beam Floor AA
2019-03-22 Illinois Gymnastics State Championships Gym Kinetics Gymnastics 11 4 Sr D 8.600 18T 9.300 8 9.350 10 8.850 19T 36.100 11
2019-03-01 NGCD Academy's 2019 Flip'r Invitational Gym Kinetics Gymnastics 10 4 Jr B 8.750 8 9.225 4 9.275 4 8.575 11 35.825 7
2019-02-23 Kinetic Classic 2019 Gym Kinetics Gymnastics 1 4 Older 8.550 23T 9.025 16T 9.150 9 8.550 29T 35.275 21
2019-02-08 Midwest Twisters Harley Meet Womens Gym Kinetics Gymnastics T10 4 11 yrs. 8.400 8 8.000 8 9.100 5T 7.900 10 33.400 9
2019-01-18 2019 Bravo Classic Gym Kinetics Gymnastics 3B 4 Sr 8.900 11 8.800 11T 9.350 2 8.550 12T 35.600 7
2019-01-11 St Jude Benefit Meet Gym Kinetics Gymnastics 6A 4 Sr A 8.650 12T 8.400 7T 9.125 8 8.900 7 35.075 8
2018-12-14 2018 Aspire Classic Gym Kinetics Gymnastics 6A 4 Older 9.100 6T 8.600 22 9.375 4T 8.000 23 35.075 22
2018-03-08 Level 4 & 5 State Gym Kinetics Gymnastics All 4 Jr F 8.050 25T 8.725 15T 9.000 18T 8.500 22T 34.275 22
2018-02-23 Kinetic Classic Gym Kinetics Gymnastics 7 4 Older 8.250 49T 8.825 40T 9.125 41 8.100 87 34.300 57
2018-02-09 Arizona Sunrays Classic Rock Invitational Gym Kinetics Gymnastics W11 4 SrB 8.550 6 8.075 8 9.200 4T 8.475 11 34.300 6
2018-02-03 Midwest Games Gym Kinetics Gymnastics 6 4 Sr A 7.800 16 8.750 9 9.450 3T 8.600 13 34.600 10
2018-01-19 2018 Bravo Classic Gym Kinetics Gymnastics 10B 4 Jr 8.050 18T 9.300 5T 9.175 11 8.725 20 35.250 16
2017-12-15 2017 Aspire Classic Gym Kinetics Gymnastics 7A 4 Older 8.500 16T 9.050 7 8.750 17 8.900 13 35.200 13
2017-02-24 Kinetic Classic Gym Kinetics Gymnastics 5,6 4 All Ages 7.900 116 7.300 124T 8.750 98T 8.000 119T 31.950 122
2017-01-13 Legacy Elite Winter Classic United Gymnastics Academy B5 4 ChA 7.700 15 7.450 11 8.300 15 8.200 16 31.650 14
2016-12-16 2016 Aspire Classic United Gymnastics Academy 6 4 Middle 8.000 20T 7.400 22 7.850 23 8.100 22 31.350 22
2016-12-09 St. Nick Invite United Gymnastics Academy 6 4 Junior 8.000 23T 8.200 26 8.650 20T 7.600 27T 32.450 25
2016-03-04 2016 Illinois Level 3 State Championships United Gymnastics Academy 3 Youth-F 8.725 31 8.025 28 7.650 28 8.450 28 32.850 30
2016-02-20 Big Classic United Gymnastics Academy 4B 3 Child B 8.800 14T 8.200 17 8.375 17T 8.250 16T 33.625 17
2016-01-15 2016 Bravo Classic United Gymnastics Academy 15A 3 8yrs 8.550 24 7.900 26 8.350 21 8.600 19T 33.400 24
2016-01-08 Legacy Elite Winter Classic United Gymnastics Academy 1B 3 Ch B 7.550 13 7.550 11 8.450 9 8.625 5 32.175 11
2015-12-18 2015 Aspire Classic United Gymnastics Academy 9 3 Older 8.950 20 8.200 18 8.550 16T 8.450 17T 34.150 19
2015-12-11 St. Nick Invite United Gymnastics Academy 5B 3 All 8.400 49T 8.650 26T 7.250 47 8.150 40T 32.450 44
Get your scores on
a t-shirt, pin, or hoodie

www.lazysuits.com